Regional Weather Roundup
Issued by NWS

Home | Current Version | Previous Version | Graphics & Text | Print | Product List | Glossary On
Versions: 1 2 3 4 5 6 7 8 9 10 11 12 13 14 15 16 17 18 19 20 21 22 23 24 25 26 27 28 29 30 31 32 33 34 35 36 37 38 39 40 41 42 43 44 45 46 47 48 49 50
000
ASUS43 KIND 011809
RWRIN

WEATHER ROUNDUP FOR INDIANA
NATIONAL WEATHER SERVICE INDIANAPOLIS IN
200 PM EDT TUE SEP 01 2015

NOTE: "FAIR" INDICATES FEW OR NO CLOUDS BELOW 12,000 FEET WITH NO
SIGNIFICANT WEATHER AND/OR OBSTRUCTIONS TO VISIBILITY.

* - STATION DOES NOT REPORT WEATHER SUCH AS PRECIPITATION OR FOG.

+ - STATION NOT QUALITY CONTROLLED BY THE NATIONAL WEATHER SERVICE.
    USE DATA WITH CAUTION...ESPECIALLY DEWPOINT AND RELATIVE
    HUMIDITY OBSERVATIONS.

INZ001>003-010>013-019-020-011900-
NORTHWEST INDIANA

CITY           SKY/WX    TMP DP  RH WIND       PRES   REMARKS
GARY /AIRPORT/ MOSUNNY  N/A N/A N/A S20       30.06F
KNOX *+        MOSUNNY   81  70  69 W9        30.08F
LA PORTE +     MOSUNNY   82  75  80 SW13      30.09F
MICHIGAN CITY+ CLOUDY    81  70  69 S13G18    30.07F
MONTICELLO +   MOSUNNY   82  71  68 W8        30.08F
6HR MIN TEMP:  70; 6HR MAX TEMP:  83;

RENSSELAER +   PTSUNNY   79  70  73 SW7       30.09F
VALPARAISO     MOSUNNY   81  71  71 W13       30.09F
6HR MIN TEMP:  69; 6HR MAX TEMP:  83;


$$

LMZ046-743>745-011900-
SOUTHERN LAKE MICHIGAN

STATION/POSITION TIME  TEMP    WIND        PRES    WAVE
                       AIR SEA DIR/SP/G            HT
                 (UTC) (F)     (DEG/KT/KT) (MB)    (FT)
BURNS HARBOR     1700   80     200/ 14/ 19 1018.6S
MICHIGAN CITY    1700   81     150/ 12/ 14   N/A
5NW MICH CITY    1800   76 72  240/ 12/ 16   N/A     1

$$

INZ004-005-014>016-021>024-011900-
NORTH CENTRAL INDIANA

CITY           SKY/WX    TMP DP  RH WIND       PRES   REMARKS
ELKHART        MOSUNNY   84  72  65 S7        30.08F
GOSHEN         MOSUNNY   85  72  65 S10       30.08F
6HR MIN TEMP:  69; 6HR MAX TEMP:  86;

LOGANSPORT +   SUNNY     84  61  45 SW9       30.10F
PERU/GRISSOM   MOSUNNY   81  69  65 SW9       30.08F
6HR MIN TEMP:  69; 6HR MAX TEMP:  85;

ROCHESTER +    MOSUNNY   86  70  58 W10       30.09F
SOUTH BEND     PTSUNNY   83  72  69 SW9       30.08F
6HR MIN TEMP:  69; 6HR MAX TEMP:  84;

WARSAW +       MOSUNNY   84  72  65 SW6       30.09F

$$

INZ006>009-017-018-025>027-011900-
NORTHEAST INDIANA

CITY           SKY/WX    TMP DP  RH WIND       PRES   REMARKS
ANGOLA *+      MOSUNNY   86  72  62 SW8       30.09F
AUBURN +       SUNNY     86  68  54 W3        30.10F
FORT WAYNE     MOSUNNY   84  71  65 W12       30.09F
6HR MIN TEMP:  68; 6HR MAX TEMP:  86;

HUNTINGTON +   PTSUNNY   85  65  52 W13       30.09F
6HR MIN TEMP:  68; 6HR MAX TEMP:  85; 6HR PCP:  0.01;


$$

INZ028-029-035-036-043>045-051>053-011900-
WEST CENTRAL INDIANA

CITY           SKY/WX    TMP DP  RH WIND       PRES   REMARKS
CRAWFORDSVL +  PTSUNNY   74  65  74 CALM      30.12F
6HR MIN TEMP:  66; 6HR MAX TEMP:  78;

GREENCASTLE +  CLOUDY    81  64  57 SW5       30.14S
LAFAYETTE      MOSUNNY   83  66  56 W12       30.09F
6HR MIN TEMP:  70; 6HR MAX TEMP:  83;

TERRE HAUTE    CLOUDY    76  66  71 SE6       30.13F
6HR MIN TEMP:  69; 6HR MAX TEMP:  78;


$$

INZ030>032-037>040-046>048-054>057-064-065-011900-
CENTRAL INDIANA

CITY           SKY/WX    TMP DP  RH WIND       PRES   REMARKS
COLUMBUS       SUNNY     82  64  54 SW6       30.13F
FRANKFORT +    MOSUNNY   84  70  63 SW8       30.13F
GREENWOOD *+   PTSUNNY   82  64  54 SW8       30.13F
INDIANAPOLIS   PTSUNNY   82  66  58 SW14      30.12F
6HR MIN TEMP:  70; 6HR MAX TEMP:  85;

-EAGLE CREEK   PTSUNNY   81  68  64 SW8       30.11S
6HR MIN TEMP:  69; 6HR MAX TEMP:  85;

KOKOMO *+      MOSUNNY   86  70  58 W14G20    30.09F
6HR MIN TEMP:  66; 6HR MAX TEMP:  86;

MARION +         N/A     74  57  54 SW14G20   30.13R
MT COMFORT *+  MOSUNNY   84  59  42 SW10      30.12F
SHELBYVILLE    PTSUNNY   86  68  54 VRB7      30.11F
6HR MIN TEMP:  68; 6HR MAX TEMP:  87;

ZIONSVILLE +   LGT RAIN  81  70  68 S5        30.12F
6HR MIN TEMP:  66; 6HR MAX TEMP:  84;


$$

INZ033-034-041-042-049-050-058-059-011900-
EAST CENTRAL INDIANA

CITY           SKY/WX    TMP DP  RH WIND       PRES   REMARKS
MUNCIE         MOSUNNY   81  67  62 W7        30.11F
6HR MIN TEMP:  69; 6HR MAX TEMP:  83;


$$

INZ060-061-067>069-081>083-085>088-011900-
SOUTHWEST INDIANA

CITY           SKY/WX    TMP DP  RH WIND       PRES   REMARKS
EVANSVILLE     MOSUNNY   86  67  52 S6        30.12F
6HR MIN TEMP:  69; 6HR MAX TEMP:  88;

HUNTINGBURG *+ PTSUNNY   88  68  51 SW7       30.12F
6HR MIN TEMP:  66; 6HR MAX TEMP:  88;

WASHINGTON +   PTSUNNY   83  62  49 CALM      30.12F
6HR MIN TEMP:  67; 6HR MAX TEMP:  83;


$$

INZ062-063-066-070>080-084-089>092-011900-
SOUTH CENTRAL AND SOUTHEAST INDIANA

CITY           SKY/WX    TMP DP  RH WIND       PRES   REMARKS
BLOOMINGTON    PTSUNNY   82  68  62 W5        30.14F
6HR MIN TEMP:  66; 6HR MAX TEMP:  82;

MADISON *+     MOSUNNY   84  63  48 NW3       30.15F
NORTH VERNON + MOSUNNY   86  64  48 CALM      30.14F
SEYMOUR +      MOSUNNY   90  64  43 CALM      30.12F

$$



USA.gov is the U.S. government's official web portal to all federal, state and local government web resources and services.